[[{"header":{"parameterUnit":"m.s-1","parameterCategory":1,"la1":30.2991,"la2":30.254,"lo1":-89.0895,"lo2":-89.0444,"dy":0.0017,"dx":0.0017,"nx":28,"ny":28,"refTime":"2024-05-04T09:00:00:Z","depth":0,"parameterNumber":2,"parameterNumberName":"U-component_of_WINDS"},"data":[0,0,0,0,0,0,0,0,0,0,0,0,0,0,0,0,0,0,0,0,0,0,0,0,0,0,0,0,0,0,0,0,0,0,0,0,0,0,0,0,0,0,0,0,0,0,0,0,0,0,0,0,0,0,0,0,0,0,-3.3041,-3.3041,0,-3.307,-3.3071,-3.3071,-3.301,-3.3008,-3.3006,-3.3004,-3.3031,-3.3034,-3.3036,0,0,0,0,0,0,0,0,0,0,0,0,0,-3.293,-3.2932,-3.3041,-3.3041,-3.3042,-3.307,-3.3071,-3.3071,-3.301,-3.3008,-3.3006,-3.3003,-3.303,-3.3033,-3.3036,0,0,0,0,0,0,0,0,0,0,0,0,0,-3.2971,-3.2933,-3.3041,-3.3015,-3.3013,-3.307,-3.3071,-3.3071,-3.3011,-3.3008,-3.3005,-3.3002,-3.3029,-3.3033,-3.3037,-3.3119,0,0,-3.3048,-3.305,0,0,0,0,0,0,0,0,-3.2968,-3.2975,-3.3019,-3.3017,-3.3015,-3.3034,-3.3041,-3.3087,-3.3012,-3.3012,-3.3004,-3.3001,-3.3034,-3.3037,-3.3049,-3.3121,-3.3122,-3.3049,-3.3051,-3.3053,-3.3054,0,0,0,0,0,0,0,-3.2966,-3.2973,-3.3053,-3.3019,-3.3017,-3.3001,-3.3004,-3.305,-3.3039,-3.3011,-3.3007,-3.3012,-3.3032,-3.3046,-3.3049,-3.3122,-3.3049,-3.3052,-3.3054,-3.3056,-3.3263,-3.3266,0,0,0,0,0,0,-3.2967,-3.2971,-3.3052,-3.3053,-3.2984,-3.3006,-3.3008,-3.3031,-3.3038,-3.3037,-3.3014,-3.3009,-3.3041,-3.3045,-3.305,-3.3147,-3.3053,-3.3056,-3.3058,-3.326,-3.3264,-3.3267,0,0,0,0,0,0,-3.2964,-3.2974,-3.305,-3.3011,-3.302,-3.3011,-3.3036,-3.3033,-3.3046,-3.304,-3.3038,-3.303,-3.3038,-3.3045,-3.3103,-3.3147,-3.3058,-3.3061,-3.3256,-3.3261,-3.3266,-3.3342,0,0,0,0,0,0,-3.2962,-3.2974,-3.3006,-3.3012,-3.3022,-3.3104,-3.3039,-3.3035,-3.3053,-3.3046,-3.3054,-3.3053,-3.3037,-3.3098,-3.3107,-3.3151,-3.3064,-3.3252,-3.3258,-3.3264,-3.3336,-3.3349,-3.3361,0,0,0,0,0,-3.2958,-3.3025,-3.3008,-3.3018,-3.3062,-3.3106,-3.3112,-3.3093,-3.3057,-3.3088,-3.3085,-3.3053,-3.3141,-3.3104,-3.3114,-3.316,-3.3249,-3.3257,-3.3264,-3.333,-3.3347,-3.336,0,0,0,0,0,0,-3.3023,-3.3026,-3.3006,-3.3078,-3.3093,-3.3096,-3.3135,-3.3111,-3.3134,-3.3127,-3.3101,-3.3104,-3.3167,-3.3169,-3.3128,-3.324,-3.3189,-3.3199,-3.3236,-3.3252,-3.3264,-3.3261,-3.3068,0,0,0,0,0,-3.3046,-3.3083,-3.3083,-3.3146,-3.3155,-3.3144,-3.3163,-3.3147,-3.316,-3.3166,-3.3167,-3.318,-3.3211,-3.3232,-3.326,-3.3336,-3.3337,-3.3373,-3.3385,-3.3396,-3.3404,-3.3444,-3.346,-3.3291,-3.3291,-3.3291,0,0,-3.3093,-3.3099,-3.3124,-3.316,-3.3169,-3.3207,-3.3149,-3.3192,-3.3219,-3.3172,-3.3227,-3.3229,-3.3242,-3.331,-3.3339,-3.3314,-3.3451,-3.3405,-3.3413,-3.3415,-3.3453,-3.3469,-3.3483,-3.3296,-3.3295,-3.3294,0,0,-3.3198,-3.3207,-3.3261,-3.3272,-3.3288,-3.328,-3.3293,-3.3301,-3.33,-3.3356,-3.3321,-3.3353,-3.3407,-3.3418,-3.343,-3.3542,-3.3513,-3.3552,-3.3616,-3.3656,-3.3669,-3.3681,-3.372,-3.3734,-3.356,-3.356,-3.3561,0,-3.3254,-3.3311,-3.3291,-3.3337,-3.3353,-3.3314,-3.3368,-3.3379,-3.3403,-3.3415,-3.3386,-3.3453,-3.3459,-3.3529,-3.3556,-3.3568,-3.3582,-3.355,-3.3669,-3.3681,-3.3691,-3.3728,-3.3743,-3.3565,-3.3564,-3.3564,-3.3564,0,-3.3379,-3.3419,-3.3461,-3.3486,-3.3507,-3.3557,-3.3544,-3.3568,-3.3551,-3.3546,-3.3603,-3.361,-3.3638,-3.3654,-3.3637,-3.3722,-3.3705,-3.3674,-3.3621,-3.3712,-3.3746,-3.376,-3.3572,-3.357,-3.3568,-3.3567,0,0,-3.3524,-3.3539,-3.3555,-3.3566,-3.3581,-3.3611,-3.3658,-3.3688,-3.3708,-3.3727,-3.3765,-3.3813,-3.3783,-3.3798,-3.3782,-3.3818,-3.3905,-3.3781,-3.3781,-3.3803,-3.3997,-3.402,-3.4037,-3.3886,-3.3889,-3.3891,-3.3996,0,-3.3628,-3.3711,-3.3695,-3.3775,-3.3812,-3.3776,-3.3817,-3.383,-3.3828,-3.3858,-3.3855,-3.3888,-3.3848,-3.3856,-3.389,-3.3887,-3.3943,-3.3879,-3.3921,-3.3922,-3.3917,-3.4055,-3.4079,-3.4178,-3.4009,-3.4011,-3.4013,0,-3.3759,-3.3783,-3.3868,-3.3878,-3.3892,-3.393,-3.3956,-3.3985,-3.4,-3.3995,-3.4013,-3.3991,-3.4037,-3.3986,-3.405,-3.4007,-3.4023,-3.4025,-3.4028,-3.403,-3.3972,-3.4059,-3.4209,-3.4223,-3.4034,-3.4032,-3.4031,0,-3.3855,-3.3909,-3.3967,-3.3977,-3.3991,-3.4018,-3.4024,-3.4036,-3.4055,-3.4078,-3.4089,-3.4117,-3.4132,-3.4154,-3.4139,-3.4104,-3.4205,-3.4153,-3.4202,-3.4203,-3.4224,-3.4222,-3.4377,-3.4237,-3.4236,-3.4236,-3.4236,0,-3.3972,-3.4024,-3.401,-3.4045,-3.4104,-3.4085,-3.4143,-3.4145,-3.4156,-3.4191,-3.4161,-3.4194,-3.4174,-3.4205,-3.4195,-3.4249,-3.4256,-3.4253,-3.4249,-3.4255,-3.4255,-3.4264,-3.4256,-3.424,-3.4239,-3.4238,-3.4238,0,-3.4088,-3.4081,-3.4141,-3.4149,-3.4153,-3.4195,-3.4201,-3.4234,-3.423,-3.4274,-3.4283,-3.4277,-3.4312,-3.4301,-3.4338,-3.4331,-3.44,-3.4388,-3.4395,-3.4392,-3.4441,-3.4436,-3.4606,-3.4626,-3.4474,-3.4476,-3.4477,0,-3.4162,-3.4202,-3.4215,-3.4237,-3.4246,-3.4281,-3.4301,-3.4285,-3.4306,-3.4326,-3.4356,-3.4389,-3.4415,-3.4473,-3.4471,-3.4499,-3.4487,-3.4544,-3.4491,-3.4495,-3.4487,-3.4484,-3.4488,-3.4554,-3.4556,-3.4558,-3.4559,0,-3.4294,-3.4289,-3.4319,-3.4348,-3.4373,-3.4395,-3.4414,-3.4433,-3.4418,-3.4444,-3.448,-3.45,-3.4539,-3.4572,-3.4598,-3.4604,-3.4579,-3.4576,-3.4589,-3.4594,-3.4597,-3.4595,-3.4423,-3.4572,-3.4571,-3.457,-3.4569,-3.4568,-3.4391,-3.4425,-3.444,-3.4474,-3.4487,-3.4506,-3.4537,-3.4538,-3.4568,-3.46,-3.4588,-3.463,-3.4644,-3.4677,-3.4686,-3.4718,-3.4696,-3.4714,-3.4719,-3.4723,-3.4729,-3.4593,-3.4723,-3.4722,-3.4722,-3.4722,-3.4721,0,-3.452,-3.4529,-3.4561,-3.4589,-3.4616,-3.4593,-3.4613,-3.4637,-3.4674,-3.469,-3.4716,-3.4757,-3.479,-3.4791,-3.4821,-3.4846,-3.4835,-3.4854,-3.4852,-3.4853,-3.4748,-3.4734,-3.4863,-3.4863,-3.4862,-3.4862,-3.4862,-3.4862,-3.4591,-3.4647,-3.4644,-3.4706,-3.4714,-3.4755,-3.4769,-3.4786,-3.4798,-3.4847,-3.4874,-3.4875,-3.4885,-3.4915,-3.4944,-3.4943,-3.4955,-3.4978,-3.4973,-3.4875,-3.4861,-3.4847,-3.4833,-3.4981,-3.4981,-3.5076,-3.5077,-3.5077]},{"header":{"parameterUnit":"m.s-1","parameterCategory":1,"la1":30.2991,"la2":30.254,"lo1":-89.0895,"lo2":-89.0444,"dy":0.0017,"dx":0.0017,"nx":28,"ny":28,"refTime":"2024-05-04T09:00:00:Z","depth":0,"parameterNumber":3,"parameterNumberName":"V-component_of_WINDS"},"data":[0,0,0,0,0,0,0,0,0,0,0,0,0,0,0,0,0,0,0,0,0,0,0,0,0,0,0,0,0,0,0,0,0,0,0,0,0,0,0,0,0,0,0,0,0,0,0,0,0,0,0,0,0,0,0,0,0,0,2.01,2.01,0,2.0079,2.0078,2.0078,2.0013,2.0012,2.001,2.0009,1.9986,1.9986,1.9987,0,0,0,0,0,0,0,0,0,0,0,0,0,2.0086,2.0086,2.01,2.01,2.01,2.0079,2.0078,2.0078,2.0014,2.0012,2.001,2.0008,1.9985,1.9986,1.9987,0,0,0,0,0,0,0,0,0,0,0,0,0,2.0081,2.0086,2.01,2.0065,2.0061,2.0079,2.0078,2.0078,2.0014,2.0012,2.001,2.0008,1.9985,1.9986,1.9987,2.0036,0,0,1.999,1.9991,0,0,0,0,0,0,0,0,2.0081,2.0081,2.007,2.0067,2.0064,2.0046,2.0064,2.0064,2.0014,2.0032,2.0009,2.0007,2.0007,2.0007,2.0007,2.0035,2.0034,1.999,1.9991,1.9992,1.9992,0,0,0,0,0,0,0,2.0082,2.0082,2.0091,2.007,2.0066,2.005,2.0047,2.0064,2.0032,2.003,2.0025,2.0024,2.0005,2.0006,2.0006,2.0034,1.999,1.9991,1.9992,1.9992,2.0103,2.0105,0,0,0,0,0,0,2.0087,2.0083,2.0092,2.0091,2.0067,2.0052,2.0049,2.0054,2.0031,2.0026,2.0026,2.0021,2.0006,2.0005,2.0005,2.0061,1.9992,1.9992,1.9993,2.01,2.0103,2.0105,0,0,0,0,0,0,2.0087,2.0088,2.0093,2.0085,2.0085,2.0055,2.0061,2.0055,2.0056,2.0028,2.0022,2.0033,2.0004,2.0004,2.0029,2.006,1.9993,1.9994,2.0098,2.0101,2.0104,2.0175,0,0,0,0,0,0,2.0087,2.0089,2.0107,2.0086,2.0085,2.0118,2.0063,2.0056,2.0058,2.0051,2.0033,2.0028,2.0002,2.0028,2.003,2.006,1.9995,2.0095,2.0099,2.0103,2.0169,2.018,2.0189,0,0,0,0,0,2.0086,2.0127,2.0108,2.0109,2.0107,2.012,2.0119,2.0089,2.0061,2.0079,2.0061,2.0028,2.0057,2.0031,2.0033,2.0064,2.0093,2.0098,2.0103,2.0165,2.0178,2.0189,0,0,0,0,0,0,2.015,2.0123,2.0102,2.0137,2.0131,2.0109,2.013,2.0103,2.0105,2.0099,2.0061,2.0058,2.0089,2.0079,2.0051,2.0111,2.0069,2.0075,2.0116,2.0128,2.0138,2.0139,1.9996,0,0,0,0,0,2.0169,2.0181,2.0157,2.019,2.0188,2.016,2.0164,2.0142,2.0134,2.0131,2.0115,2.0109,2.0116,2.0122,2.0127,2.0168,2.0164,2.0191,2.02,2.0209,2.0214,2.0236,2.0248,2.0122,2.0122,2.0122,0,0,2.0206,2.0193,2.0203,2.0202,2.0195,2.0209,2.0158,2.0174,2.0184,2.0133,2.0157,2.0146,2.0136,2.017,2.0185,2.0163,2.0248,2.0215,2.0222,2.0223,2.0243,2.0255,2.0265,2.0126,2.0125,2.0125,0,0,2.0281,2.0273,2.03,2.0294,2.0285,2.0266,2.0273,2.0255,2.0246,2.027,2.0232,2.0244,2.0257,2.0252,2.0251,2.0328,2.0298,2.0331,2.0382,2.0404,2.0414,2.0423,2.045,2.0461,2.0337,2.0337,2.0337,0,2.0329,2.0348,2.0317,2.0336,2.0338,2.0294,2.0322,2.0318,2.031,2.0312,2.0289,2.0306,2.0296,2.0329,2.0348,2.0349,2.0356,2.0332,2.0415,2.0424,2.0431,2.0457,2.0468,2.0341,2.034,2.034,2.034,0,2.0407,2.0422,2.0445,2.044,2.0444,2.0468,2.0441,2.0449,2.0427,2.0412,2.0437,2.0424,2.0427,2.0433,2.0412,2.0464,2.0451,2.0422,2.0379,2.0448,2.0471,2.0481,2.0347,2.0345,2.0344,2.0343,0,0,2.0519,2.0499,2.0508,2.0506,2.0494,2.0504,2.0527,2.053,2.0538,2.0536,2.0553,2.0567,2.0541,2.054,2.0518,2.0538,2.0601,2.0507,2.0506,2.0524,2.0658,2.0679,2.0691,2.0582,2.0583,2.0585,2.0659,0,2.059,2.0627,2.0601,2.0643,2.0656,2.0616,2.0636,2.0631,2.0618,2.0627,2.0612,2.0623,2.0587,2.0587,2.0605,2.0589,2.0627,2.0584,2.0597,2.0598,2.06,2.0704,2.0726,2.0796,2.0668,2.067,2.0671,0,2.0677,2.068,2.0723,2.071,2.0715,2.0733,2.0735,2.0745,2.0739,2.0728,2.0729,2.0702,2.0724,2.0683,2.0712,2.0684,2.0688,2.0682,2.0684,2.0683,2.0638,2.0705,2.0818,2.0828,2.0685,2.0684,2.0683,0,2.0755,2.0769,2.0797,2.0797,2.0782,2.0796,2.0791,2.0783,2.0787,2.0789,2.0792,2.0797,2.0799,2.0803,2.0779,2.0752,2.0812,2.0769,2.0803,2.0804,2.0816,2.0815,2.093,2.0821,2.082,2.082,2.082,0,2.0836,2.0864,2.0832,2.0849,2.088,2.0851,2.0882,2.0872,2.0866,2.0881,2.0847,2.0861,2.0829,2.084,2.0821,2.0849,2.085,2.0842,2.0836,2.0844,2.0846,2.0846,2.084,2.0823,2.0822,2.0822,2.0821,0,2.0927,2.0907,2.0935,2.092,2.0917,2.094,2.0927,2.0942,2.0928,2.0947,2.095,2.0928,2.094,2.0916,2.0925,2.0912,2.0951,2.0938,2.0953,2.0949,2.0985,2.0982,2.1103,2.1118,2.1,2.1001,2.1002,0,2.098,2.1001,2.0989,2.0997,2.0994,2.1007,2.1012,2.0985,2.0992,2.0988,2.1004,2.1014,2.1019,2.1041,2.1025,2.1032,2.1018,2.1061,2.1019,2.1027,2.1019,2.1017,2.102,2.1069,2.107,2.1071,2.1072,0,2.1076,2.1066,2.1074,2.1081,2.1088,2.1092,2.1092,2.1101,2.1072,2.1082,2.1094,2.1099,2.1109,2.1119,2.1123,2.1117,2.109,2.1086,2.1094,2.1102,2.111,2.1106,2.0976,2.1083,2.1082,2.1081,2.108,2.108,2.1149,2.1166,2.1161,2.1173,2.1171,2.1174,2.1188,2.1176,2.1187,2.1193,2.1177,2.1193,2.1189,2.1191,2.1188,2.1201,2.1182,2.1194,2.1197,2.12,2.1206,2.1109,2.1202,2.1201,2.1201,2.1201,2.1201,0,2.1243,2.1239,2.125,2.1253,2.1263,2.1239,2.1239,2.1248,2.1264,2.1262,2.127,2.1285,2.1295,2.1281,2.1289,2.1302,2.129,2.1305,2.1303,2.1302,2.1222,2.1214,2.1315,2.1315,2.1315,2.1315,2.1315,2.1315,2.1293,2.1322,2.1311,2.1339,2.1334,2.1351,2.1353,2.1356,2.1354,2.1373,2.1382,2.1373,2.1367,2.1375,2.1383,2.1379,2.1383,2.1403,2.1394,2.1319,2.1308,2.1297,2.1289,2.1404,2.1404,2.1473,2.1473,2.1474]}]]